RH
83 91 74 57 57 59 54 66 67 67 65 52 51 53 39 27 6 4 7 5 4 5 8 20 38 53 63 54 37 25 58 100 100 90 100 77 72 100 85 75 98 99 93 99 93 81 53
81 92 96 76 62 71 65 66 69 73 64 56 58 55 44 20 4 5 6 6 5 6 12 27 51 67 66 49 30 34 37 99 100 99 100 100 76 99 96 75 99 91 97 97 84 63 80
48 62 89 95 66 68 74 64 75 75 64 66 60 54 32 12 4 7 7 6 5 6 15 42 66 70 61 37 46 39 46 82 100 100 100 87 83 99 96 88 98 99 98 99 98 98 85
10 46 69 92 91 73 78 76 76 80 68 72 66 51 25 11 6 8 7 6 5 9 26 57 72 64 49 50 59 58 52 49 100 100 100 97 79 96 100 95 99 100 99 99 99 96 94
3 5 38 62 97 91 76 93 76 82 75 74 69 51 25 11 7 8 6 5 6 10 33 72 68 61 45 63 77 89 50 44 99 98 92 100 86 86 100 100 99 100 96 97 100 99 98
4 3 3 32 56 96 72 92 74 90 78 78 70 50 25 10 8 9 6 4 6 12 49 78 62 48 61 62 75 73 53 46 100 87 76 99 100 100 94 100 92 85 91 83 95 98 97
4 4 3 3 22 64 84 92 82 91 84 80 71 50 25 10 10 8 5 4 7 22 73 63 45 50 66 81 94 88 78 79 100 70 100 84 100 94 82 96 95 100 100 87 98 100 100
5 4 4 3 3 33 92 90 94 100 89 82 71 50 24 12 11 7 4 4 8 36 62 44 32 53 74 100 100 70 58 95 87 81 82 97 80 98 87 100 97 100 100 98 97 99 99
7 6 4 4 4 15 60 80 92 91 94 84 72 46 20 15 11 5 4 4 9 40 53 26 32 62 79 99 90 66 84 100 81 76 100 95 100 74 74 100 99 89 76 80 99 99 100
8 7 6 4 4 6 23 87 97 89 97 81 73 46 16 14 10 4 4 5 12 44 40 24 40 70 79 99 67 71 100 100 99 100 100 100 100 93 100 80 89 81 62 92 98 100 100
8 8 8 6 4 6 18 95 98 85 96 84 72 46 18 14 8 4 4 5 16 44 30 30 43 61 100 100 100 100 84 100 100 100 94 100 90 100 94 58 76 82 81 81 100 99 100
10 9 9 9 4 5 15 78 97 96 96 84 72 42 16 14 5 3 3 6 20 39 27 35 39 57 99 83 88 100 100 99 95 95 100 88 100 100 100 99 92 70 79 80 91 97 96
11 10 9 9 7 5 18 68 96 97 97 85 71 39 14 9 3 2 3 5 23 34 24 36 31 49 72 84 75 99 93 100 100 100 100 87 99 100 99 88 88 85 87 100 100 99 84
4 10 9 8 8 5 14 75 96 98 97 87 68 26 12 7 3 3 3 5 23 33 29 37 37 37 58 81 76 72 96 98 100 100 100 100 100 90 99 94 74 89 94 82 91 73 70
2 4 6 8 7 7 10 79 97 97 97 86 63 16 9 5 2 3 3 4 22 34 34 38 33 43 52 68 51 57 68 89 99 97 100 100 94 99 86 94 96 90 79 70 71 82 78
8 4 5 10 7 7 9 78 97 97 96 86 49 13 8 3 2 2 3 4 19 32 23 56 52 44 32 41 53 53 48 68 86 84 97 99 86 91 92 99 100 88 91 85 92 78 57
47 4 9 10 8 6 10 90 98 98 96 84 41 11 7 3 2 2 3 3 16 30 25 47 48 46 38 29 41 52 49 62 80 80 70 85 70 78 82 84 91 96 100 100 98 100 100
81 6 8 8 14 7 38 96 98 98 96 85 31 11 5 3 2 2 2 3 8 26 35 22 49 84 67 26 36 38 47 53 80 82 88 100 100 90 94 88 95 99 99 94 97 100 92
21 7 9 71 63 13 61 96 98 98 96 76 23 10 4 3 2 2 2 3 5 16 39 38 34 42 85 63 38 55 28 45 59 70 70 99 96 99 90 94 100 100 99 100 99 100 91
8 8 9 99 56 16 61 97 98 98 97 44 22 8 4 2 2 2 2 3 3 7 27 40 46 31 48 83 84 70 65 58 58 61 63 64 78 91 80 96 98 98 95 91 87 99 100
9 10 39 100 76 40 98 98 98 97 96 40 22 7 4 3 3 2 2 2 2 4 9 25 34 56 27 38 79 83 84 80 81 82 91 88 88 94 90 96 78 68 68 64 69 100 89
12 13 100 100 74 71 98 98 98 98 81 40 21 8 4 3 3 3 2 2 2 3 5 16 29 35 63 24 47 82 88 87 96 94 96 92 92 87 85 86 92 84 80 84 87 86 87
28 98 99 99 70 94 98 98 98 98 62 38 20 10 5 3 3 3 3 2 2 3 4 7 20 29 32 63 22 48 70 77 78 80 74 75 79 92 87 83 85 92 94 92 85 75 72
93 99 100 94 86 96 98 98 98 97 55 37 19 10 7 5 4 4 3 3 2 2 3 4 8 16 28 30 51 31 28 61 67 68 66 69 69 76 80 78 72 68 65 61 61 62 61
100 100 100 100 100 99 99 98 97 96 58 36 20 11 9 7 5 4 4 3 3 3 3 3 4 8 17 27 29 35 57 33 49 54 54 58 64 70 67 64 58 55 65 68 68 71 73
100 100 98 93 84 91 98 99 97 96 62 34 22 16 14 9 7 5 4 4 4 3 3 3 4 5 11 16 19 27 27 40 61 68 66 70 67 61 58 54 50 53 58 60 60 62 70
100 100 100 100 97 100 96 98 98 95 65 35 27 24 24 14 9 9 6 4 4 4 3 3 3 4 7 12 16 19 23 26 29 33 38 42 45 48 49 52 52 53 58 56 53 60 66
100 100 100 98 98 98 99 97 98 96 54 35 36 36 27 21 15 21 10 5 5 4 4 4 3 3 4 7 10 14 20 19 21 26 30 34 43 47 58 65 63 62 62 70 70 80 82
98 100 98 88 96 99 98 98 98 95 46 39 42 46 37 27 20 25 11 8 5 5 5 4 4 3 4 4 5 9 12 17 21 24 32 38 44 57 64 68 68 66 63 57 54 51 54
Wind_Speed
37 37 36 35 38 38 37 38 36 38 38 40 43 42 42 45 49 58 67 71 73 63 44 33 32 36 38 40 37 22 33 39 36 42 32 49 59 56 58 59 65 52 49 49 52 56 57
38 37 36 35 38 37 38 37 37 37 39 41 41 43 44 43 50 60 67 71 72 59 41 33 35 38 39 41 31 16 24 46 35 38 43 40 58 54 57 58 65 56 39 55 46 50 58
43 45 42 39 35 38 39 37 37 37 39 40 42 42 39 41 52 61 68 72 69 53 39 34 37 39 39 35 23 14 18 42 42 29 39 43 45 48 54 57 64 56 46 48 39 54 54
41 42 47 45 42 36 38 37 36 38 40 40 40 40 38 40 52 61 68 71 66 48 37 36 38 39 35 23 9 10 18 27 43 37 48 42 45 48 44 50 62 57 46 44 52 52 47
47 44 43 49 47 39 36 39 36 37 40 39 39 39 39 41 51 61 69 70 61 44 36 36 36 37 26 9 8 12 13 23 37 40 58 35 45 43 44 47 51 53 55 51 52 40 38
47 48 48 47 52 44 35 37 36 37 39 38 38 39 38 42 51 60 67 68 57 43 36 36 37 31 15 9 14 9 10 25 39 43 54 38 49 42 47 44 46 48 49 46 49 61 32
49 47 50 50 50 52 35 35 36 37 39 38 37 36 36 42 51 60 65 65 50 38 36 36 36 19 10 16 13 8 11 29 42 40 41 35 47 40 39 41 40 28 42 46 49 27 39
58 53 50 50 51 53 40 34 32 36 37 36 36 35 35 42 50 59 63 62 45 34 36 38 32 14 14 14 10 5 22 27 41 41 41 33 42 41 39 40 36 37 36 47 49 37 22
68 62 52 52 51 55 49 36 34 35 37 36 34 32 33 42 49 56 60 60 40 32 34 38 23 14 15 15 13 15 29 26 35 36 33 39 29 41 40 35 35 36 38 36 38 37 32
70 71 63 60 55 52 56 36 32 34 36 33 31 30 32 40 47 53 60 55 37 31 34 31 19 15 14 15 12 23 25 27 31 31 27 31 29 32 32 33 30 33 38 40 29 32 38
82 75 74 65 54 51 55 40 26 35 33 32 29 28 31 39 46 51 57 51 36 31 34 26 18 15 25 21 11 15 29 32 22 21 27 34 35 25 32 38 32 25 37 36 25 30 29
92 86 76 71 58 49 54 50 26 32 31 30 28 25 29 36 42 48 56 47 34 28 26 21 10 14 19 15 14 26 21 24 21 28 27 37 39 32 28 32 30 28 24 24 37 29 24
103 91 85 76 62 51 53 51 34 31 31 28 26 23 26 33 38 44 54 43 27 25 22 19 13 9 15 12 14 22 25 22 23 26 32 38 31 24 33 31 29 26 25 26 33 33 32
84 93 81 72 66 49 51 48 27 33 31 26 23 19 23 29 34 40 52 41 25 24 17 14 17 14 13 15 12 16 15 18 30 29 30 30 29 25 26 30 32 34 30 34 26 25 25
63 66 68 65 59 49 51 48 28 32 26 21 19 14 20 25 31 37 47 41 23 22 14 18 14 8 9 13 11 18 14 11 21 26 26 33 26 21 15 16 25 32 31 27 25 27 28
48 61 63 58 54 50 51 49 24 26 23 16 14 12 16 20 27 35 42 39 17 20 13 13 12 11 14 7 11 12 15 14 21 18 20 28 22 15 15 15 15 17 24 27 26 28 29
46 62 63 56 51 52 48 47 20 29 21 13 13 11 12 17 23 31 39 36 19 16 16 13 7 6 10 17 10 12 19 17 19 15 19 22 14 14 17 21 19 16 18 23 28 29 26
45 62 59 56 55 52 45 42 24 19 21 15 14 10 7 13 20 26 37 34 28 13 15 10 8 7 8 16 13 17 17 19 22 17 16 17 23 15 13 19 20 17 17 19 21 23 23
51 64 59 53 54 49 47 41 22 22 22 17 16 7 4 11 16 21 31 32 26 12 11 13 14 4 5 11 12 12 21 19 22 22 17 18 15 11 13 16 15 15 16 16 17 22 25
60 61 57 47 55 50 48 33 22 23 24 22 17 9 1 9 15 17 27 29 30 20 9 9 6 9 7 4 8 17 18 18 16 21 21 22 22 15 16 18 12 14 15 16 18 19 20
66 61 54 41 48 46 47 30 23 29 28 22 18 12 6 9 11 15 22 27 30 25 14 5 5 5 1 7 7 13 16 17 16 14 15 15 18 14 15 14 13 15 16 18 18 17 21
67 63 44 46 45 46 44 29 29 23 31 23 19 14 10 8 12 15 18 23 26 28 19 5 4 3 3 6 12 13 11 10 10 10 12 14 14 13 9 9 10 10 12 12 12 16 18
68 58 46 47 56 46 38 25 26 27 30 25 21 16 13 11 10 12 15 19 23 26 24 12 2 2 1 2 8 16 15 11 11 9 8 7 8 8 8 8 9 9 11 11 11 13 14
70 54 54 43 51 50 33 28 30 33 31 28 23 18 14 11 7 8 13 17 19 23 24 20 6 2 2 2 1 7 19 20 17 15 14 11 12 12 13 15 15 14 15 16 16 17 18
67 44 48 46 44 45 31 26 32 38 32 29 24 20 16 11 9 4 8 14 17 19 23 25 18 8 6 6 5 4 5 12 23 23 23 21 19 18 17 17 20 20 20 21 22 23 24
66 54 55 55 55 45 30 26 31 40 32 31 26 21 17 13 8 6 2 9 13 17 18 21 22 16 5 7 9 9 8 9 10 15 18 17 17 19 21 23 23 23 21 21 23 25 26
61 62 56 50 48 31 30 32 33 42 34 31 27 21 17 13 9 6 3 3 9 12 16 17 20 22 12 5 4 9 12 14 15 16 17 19 20 20 22 23 24 24 24 25 27 28 29
53 55 48 53 43 31 34 31 38 43 36 33 27 22 18 15 11 8 4 5 3 8 11 15 19 20 22 15 8 4 10 14 15 17 17 19 21 22 23 23 23 24 23 23 25 25 27
51 56 47 56 45 35 37 28 42 43 37 32 27 24 20 15 12 10 7 5 4 4 7 10 13 13 17 21 21 13 6 7 12 13 16 17 21 22 24 24 23 24 24 25 26 27 27
Wind_Direction
296 301 300 302 297 296 299 302 307 308 311 314 316 320 322 328 327 326 327 332 335 339 332 323 318 318 317 315 314 294 209 188 179 189 188 199 197 200 196 195 197 191 205 203 206 214 213
302 303 302 299 300 299 301 304 307 308 310 315 318 323 324 327 328 325 328 332 338 339 330 322 320 321 318 315 309 272 229 201 187 189 202 194 197 199 197 196 198 192 197 195 204 213 216
305 301 302 295 294 299 299 305 307 308 310 315 319 326 327 326 326 326 328 333 341 338 329 324 326 323 321 317 304 263 247 212 196 191 178 191 197 197 197 197 195 197 203 191 197 203 219
315 305 299 303 298 293 299 305 307 309 309 316 321 327 329 326 324 327 329 336 342 338 330 330 328 325 324 317 318 279 236 212 198 190 179 189 197 193 193 193 194 197 201 184 215 212 220
313 311 304 299 303 292 298 305 307 307 309 316 322 326 328 324 324 327 330 338 343 339 333 333 330 329 330 314 316 317 240 206 194 191 185 179 186 195 196 191 200 199 200 206 205 189 212
303 307 307 302 299 302 294 304 304 306 307 314 321 325 328 323 324 327 332 340 343 339 337 337 333 337 340 342 323 313 222 187 183 187 187 188 184 183 188 191 201 199 197 204 205 202 211
296 301 300 303 302 297 291 300 303 305 307 314 320 324 327 322 324 328 335 343 345 344 342 339 338 346 358 348 339 328 190 176 175 185 180 183 175 186 193 187 189 181 199 199 195 193 220
289 291 295 295 300 297 293 295 299 304 304 311 319 323 326 321 325 330 337 345 349 349 340 344 349 359 6 25 10 333 158 164 169 176 177 168 180 193 187 190 197 202 206 209 208 210 215
286 286 285 290 291 296 293 282 294 300 303 309 318 324 322 321 326 334 338 347 352 352 347 354 1 18 43 44 9 147 151 153 170 173 183 162 169 192 193 184 195 208 207 208 203 211 218
279 281 281 283 287 288 290 276 292 293 300 304 315 326 318 322 329 335 340 350 354 356 356 2 13 40 55 55 88 126 134 137 165 160 170 177 163 170 183 198 203 204 210 210 200 205 211
276 275 275 276 278 282 281 271 280 286 295 300 313 324 317 322 329 338 342 350 358 360 2 14 29 74 88 74 89 103 159 131 129 158 165 163 157 167 185 197 199 202 200 211 201 202 206
274 273 271 272 270 275 275 272 276 278 293 295 305 319 315 323 333 341 343 349 2 6 11 20 75 99 71 111 117 127 147 153 136 153 160 172 166 177 160 168 182 188 187 187 208 213 198
262 265 268 267 264 266 269 267 266 272 284 290 302 312 314 325 336 344 344 349 5 16 21 29 122 86 81 95 140 146 151 159 139 144 144 167 179 182 166 175 186 196 179 174 187 205 223
254 253 257 256 256 253 258 258 255 267 280 286 301 303 312 329 342 346 346 348 9 22 34 52 137 125 99 102 120 167 159 163 139 142 143 161 156 155 170 197 205 199 200 205 207 215 215
238 232 237 242 244 244 248 247 242 257 274 280 294 290 310 334 346 347 350 350 11 30 62 73 131 104 130 101 129 163 186 171 159 132 144 162 155 155 167 167 184 197 205 206 215 218 221
211 211 213 219 228 231 239 241 231 258 263 269 282 278 311 346 352 349 351 351 13 42 54 92 108 100 164 148 108 160 179 167 164 151 149 150 151 153 168 166 180 195 204 209 210 205 203
209 204 195 202 216 225 229 229 222 244 248 248 260 267 318 356 5 353 353 356 15 49 44 147 110 72 114 178 166 154 165 177 167 162 174 184 202 191 192 187 184 187 192 209 219 223 222
215 187 180 191 206 218 223 217 209 231 233 219 236 245 319 14 11 356 353 2 16 42 52 119 108 109 84 174 176 164 157 182 170 164 177 166 175 193 200 206 207 201 201 201 208 212 219
187 173 176 180 205 203 216 207 208 217 227 206 214 218 329 37 17 357 356 5 19 30 61 67 185 144 114 155 195 173 174 181 190 209 207 191 192 204 219 204 206 219 218 212 215 218 220
172 168 177 179 205 207 211 199 204 216 219 191 196 193 82 55 46 5 1 9 20 18 53 62 72 212 208 155 177 167 170 179 194 200 210 213 226 244 231 223 224 215 218 224 222 212 216
168 170 172 180 205 206 205 188 197 215 196 188 185 182 132 64 46 18 9 10 20 13 23 77 65 47 131 205 194 189 173 178 185 187 193 203 218 222 212 217 224 221 228 234 234 218 222
169 167 169 182 199 207 201 184 194 211 179 190 183 181 166 94 68 38 20 17 24 18 16 51 90 60 56 176 198 212 209 194 185 193 197 201 207 213 222 233 233 231 232 244 242 241 239
166 168 155 181 202 192 208 182 190 198 187 189 180 177 170 133 86 53 26 21 24 20 19 32 110 141 125 121 204 219 226 223 220 220 219 229 230 226 238 245 250 243 238 240 244 253 262
173 164 168 185 203 198 188 192 189 193 189 184 179 176 168 166 128 72 38 27 27 27 22 22 13 246 228 168 160 213 225 229 230 235 242 254 258 260 258 262 265 265 272 275 270 265 265
167 165 174 183 197 191 181 188 188 187 189 182 178 178 171 175 167 112 51 37 38 30 26 23 21 350 254 223 220 238 238 238 237 244 254 262 269 270 271 274 280 281 273 268 269 268 266
163 174 167 190 187 183 180 197 189 185 190 179 177 182 173 183 175 171 77 37 38 33 30 25 29 24 323 246 238 240 244 247 245 246 249 253 260 267 271 275 275 274 273 274 272 270 269
172 165 174 190 184 181 181 184 191 183 187 179 177 183 179 186 183 177 213 18 40 43 37 33 28 31 32 23 262 245 242 246 253 252 252 256 258 261 264 266 267 269 271 268 264 266 266
157 164 176 186 183 185 194 190 190 180 183 178 179 180 181 190 196 201 225 255 352 42 42 39 36 36 28 33 21 294 261 256 256 261 265 265 266 265 265 268 270 273 275 276 273 272 271
162 167 175 180 180 187 185 190 191 179 180 176 183 183 186 189 202 211 223 249 276 4 26 39 44 40 35 29 25 21 319 292 268 266 266 262 269 272 276 274 275 274 276 277 279 279 280